Regional Weather Roundup
Issued by NWS Charleston, SC

Current Version | Previous Version | Graphics & Text | Print | Product List | Glossary On
Versions: 1 2 3 4 5 6 7 8 9 10 11 12 13 14 15 16 17 18 19 20 21 22 23 24 25 26 27 28 29 30 31 32 33 34 35 36 37 38 39 40 41 42 43 44 45 46 47 48 49 50
010 ASUS42 KCHS 051412 RWRCHS REGIONAL WEATHER ROUNDUP NATIONAL WEATHER SERVICE CHARLESTON SC 900 AM EST FRI FEB 05 2016 NOTE: "FAIR" INDICATES FEW OR NO CLOUDS BELOW 12,000 FEET WITH NO SIGNIFICANT WEATHER AND/OR OBSTRUCTIONS TO VISIBILITY. NOT ALL STATIONS ARE QUALITY CONTROLLED BY THE NATIONAL WEATHER SERVICE. USE DATA WITH CAUTION...ESPECIALLY DEWPOINT OBSERVATIONS. NOTICE: OBSERVATIONS FOR THE SAVANNAH-HILTON HEAD INTERNATIONAL AIRPORT /KSAV/ HAVE BEEN TEMPORARILY REMOVED DUE TO AN ERRONEOUS TEMPERATURE SENSOR. THE OBSERVATION WILL BE REINTRODUCED ONCE REPAIRS ARE COMPLETE. SCZ027-030-031-034>040-042>050-051500- ...SOUTHEAST SOUTH CAROLINA... CITY SKY/WX TMP DP RH WIND PRES REMARKS N CHARLESTON SUNNY 48 31 51 N18G24 30.27R WATERFRONT PRK N/A 47 34 60 N14 30.11R MOUNT PLEASANT FAIR 46 34 61 N8G18 30.28R JOHNS ISLAND FAIR 48 34 57 N15G22 30.27R PINOPOLIS N/A 48 34 57 N15 30.20R MONCKS CORNER FAIR 43 28 56 N12G18 30.28R SUMMERVILLE FAIR 46 36 66 N13 30.29R BEAUFORT MCAS SUNNY 45 32 60 NW10 30.30R BEAUFORT ARPT FAIR 45 32 61 NW12 30.29R HILTON HEAD IS SUNNY 43 32 65 NW12G23 30.30R WALTERBORO SUNNY 46 36 66 N7G16 30.30R ALLENDALE FAIR 43 28 56 N10 30.31R ...SOUTHERN MIDLANDS AND PEE DEE... CITY SKY/WX TMP DP RH WIND PRES REMARKS GEORGETOWN NOT AVBL KINGSTREE NOT AVBL ORANGEBURG SUNNY 44 31 60 N15G21 30.30R BARNWELL FAIR 43 30 61 N14 30.32R AIKEN FAIR 37 23 56 N14G20 30.34R WCI 29 MANNING FAIR 43 32 65 N12 30.30R COLUMBIA SUNNY 43 23 45 N10G22 30.31R SUMTER SUNNY 42 32 66 N13G18 30.29R FLORENCE SUNNY 42 32 67 N15 30.30R MYRTLE BEACH MOSUNNY 43 30 61 N17G23 30.30R N MYRTLE BEACH MOSUNNY 42 34 73 N10G23 30.27R $$ GAZ063-065-086>088-099>101-113>116-118-119-134>141-150-051500- ...SOUTHEAST GEORGIA... CITY SKY/WX TMP DP RH WIND PRES REMARKS SAVANNAH ARPT SUNNY 42 27 55 NW17 30.31R HUNTER AAF SUNNY 42 28 58 NW14 30.29R FORT STEWART SUNNY 41 26 54 NW12G18 30.31R STATESBORO MOSUNNY 44 24 44 N8 30.33R SYLVANIA SUNNY 41 31 67 N9 30.33R CLAXTON FAIR 41 29 63 NW9 30.34R ...CSRA...CENTRAL AND FAR SOUTHEAST GEORGIA... CITY SKY/WX TMP DP RH WIND PRES REMARKS THOMSON SUNNY 39 26 58 N6 30.39R WCI 35 AUGUSTA-BUSH SUNNY 41 24 51 N13G20 30.33R AUGUSTA-DANIEL SUNNY 41 22 46 N9 30.32R SWAINSBORO FAIR 37 23 56 NW8 30.35R WCI 31 VIDALIA SUNNY 37 25 60 N12 30.34R WCI 30 EASTMAN FAIR 39 21 48 N6 30.38R WCI 34 HAZLEHURST FAIR 40 23 51 N8 30.34R WCI 34 ALMA SUNNY 39 22 50 NW8 30.35R WCI 33 WAYCROSS SUNNY 42 28 57 N14 N/A JESUP FAIR 43 30 61 N7 30.34R BAXLEY FAIR 41 25 52 NW8 30.34R BRUNSWICK SUNNY 41 30 65 W8 30.33R SAINT SIMONS SUNNY 41 27 57 NW12G21 30.31R $$ SCZ027-028-034-036>038-045-046-048>050-GAZ119-141-051500- ...LAKE AND SUPPLEMENTAL COASTAL OBSERVATIONS... STATION/POSITION TIME TEMP WIND PRES WAVE SWELL AIR SEA DIR/SP/G HT/PER HT/PER/DIR (UTC) (F) (DEG/KT/KT) (MB) (FT/S) (FT/S/D) WINYAH BAY NOT AVBL LAKE MURRAY 1300 39 310/ 5/ 11 1026.1R ACE BASIN NERRS NOT AVBL FORT PULASKI 1300 41 54 300/ 15/ 18 1025.4R SAPELO ISLAND 1300 40 320/ 11 1025.0R $$ ANZ835-935-AMZ111-154-330-350-352-354-370-450-454-472-051500- ...C-MAN AND BUOY OBSERVATIONS... STATION/POSITION TIME TEMP WIND PRES WAVE SWELL AIR SEA DIR/SP/G HT/PER HT/PER/DIR (UTC) (F) (DEG/KT/KT) (MB) (FT/S) (FT/S/D) BUOY 41004 1350 52 68 350/ 27/ 33 1022.5R 7/ 5 2/15 BUOY 41008 1350 44 55 340/ 21/ 25 1025.5R 4/ 4 FOLLY BEACH CMAN 1300 47 340/ 15/ 21 1023.8R CAPERS NEARSHORE 1308 48 340/ 19/ 25 1022.4R FRIPP NEARSHORE 1300 45 330/ 14/ 17 1023.6R STATION/POSITION TIME TEMP WIND PRES WAVE SWELL AIR SEA DIR/SP/G HT/PER HT/PER/DIR (UTC) (F) (DEG/KT/KT) (MB) (FT/S) (FT/S/D) 5E ST. MARYS GA 1321 58 N/A 4/ 4 FRYING PAN BUOY 1300 49 66 330/ 25/ 31 1021.8R BUOY 41025 1350 70 340/ 31/ 39 1017.6R 9/ 7 CAPE LOOKOUT NC NOT AVBL BUOY 41002 1350 64 69 280/ 25/ 33 N/A 8/ 7 2/200/14 BUOY 41010 1320 64 74 1021.0R ST AUGUSTINE FL 1400 43 58 340/ 19/ 24 1026.3R $$

USA.gov is the U.S. government's official web portal to all federal, state and local government web resources and services.